Location: Cheyres
(46.8153°N, 6.7877°E)
Time: 11:54:21
(UTC+00:00)

Gbstr 26 Del rocket - Pass Details

Date: 25 September 2021
Orbit: 492 x 1263 km, 51.8° (Epoch: 18 October)

Event Time Altitude Azimuth Distance (km) Brightness Sun altitude
Rises 19:29:29 0° 210° (SSW) 3,838 7.2 -21.7°
Reaches altitude 10° 19:32:10 10° 204° (SSW) 2,980 6.5 -22.2°
Maximum altitude 19:39:06 44° 135° (SE) 1,625 4.7 -23.2°
Enters shadow 19:40:10 42° 115° (ESE) 1,686 4.7 -23.4°
